Fosston, MN

1:03 AM CDT on July 24, 2017 (GMT -0500)
Fosston Municipal

Weather History for KFSE - November, 2014

Change the Weather History Date:

Saturday, November 22, 2014

  Actual Average Record
Temperature  
Mean Temperature 29 °F -  
Max Temperature 39 °F 31 °F 60 °F (2006)
Min Temperature 19 °F 13 °F -11 °F (1977)
Degree Days  
Heating Degree Days 36    
Moisture  
Dew Point 26 °F    
Average Humidity 83    
Maximum Humidity 100    
Minimum Humidity 65    
Precipitation  
Precipitation 0.00 in - - ()
Sea Level Pressure  
Sea Level Pressure 29.54 in    
Wind  
Wind Speed 8 mph (SSE)    
Max Wind Speed 12 mph    
Max Gust Speed 18 mph    
Visibility 10 miles    
Events      
Averages and records for this station are not official NWS values.
T = Trace of Precipitation, MM = Missing Value Source: NWS Daily Summary

Daily Weather History Graph

Daily Weather History Graph

Search for Another Location

Airport or City:

Trip Planner

Search our weather history database for the weather conditions in past years. The results will help you decide how hot, cold, wet, or windy it might be!

Date:

Astronomy

Nov. 22, 2014 Rise Set
Actual Time 7:38 AM CST 4:39 PM CST
Civil Twilight 7:04 AM CST 5:13 PM CST
Nautical Twilight 6:26 AM CST 5:51 PM CST
Astronomical Twilight 5:49 AM CST 6:28 PM CST
Moon 7:33 AM CST (11/22) 5:13 PM CST (11/22)
Length of Visible Light 10h 09m
Length of Day
9h 01m
New Moon, 0% of the Moon is Illuminated
Nov 22
New Moon
Nov 29
First Quarter
Dec 6
Full
Dec 14
Last Quarter
Dec 21
New

Hourly Weather History & Observations

Time (CST) Temp. Windchill Dew Point Humidity Pressure Visibility Wind Dir Wind Speed Gust Speed Precip Events Conditions
12:15 AM 23.0 °F 14.7 °F 21.2 °F 93% 29.66 in 10.0 mi SSW 6.9 mph - N/A   Clear
12:35 AM 24.8 °F 15.3 °F 21.2 °F 86% 29.66 in 10.0 mi South 9.2 mph - N/A   Clear
12:55 AM 24.8 °F 14.6 °F 21.2 °F 86% 29.66 in 10.0 mi South 10.4 mph - N/A   Clear
1:15 AM 24.8 °F 14.6 °F 21.2 °F 86% 29.66 in 10.0 mi South 10.4 mph - N/A   Clear
1:35 AM 24.8 °F 14.6 °F 21.2 °F 86% 29.65 in 10.0 mi South 10.4 mph - N/A   Scattered Clouds
1:55 AM 24.8 °F 14.0 °F 21.2 °F 86% 29.65 in 10.0 mi South 11.5 mph - N/A   Scattered Clouds
2:16 AM 24.8 °F 14.6 °F 21.2 °F 86% 29.65 in 10.0 mi South 10.4 mph - N/A   Clear
2:35 AM 24.8 °F 14.0 °F 21.2 °F 86% 29.65 in 10.0 mi South 11.5 mph - N/A   Clear
2:55 AM 24.8 °F 15.3 °F 21.2 °F 86% 29.65 in 10.0 mi South 9.2 mph - N/A   Clear
3:15 AM 23.0 °F 13.9 °F 21.2 °F 93% 29.65 in 10.0 mi South 8.1 mph - N/A   Clear
3:35 AM 21.2 °F 10.9 °F 19.4 °F 93% 29.65 in 10.0 mi South 9.2 mph - N/A   Clear
3:55 AM 21.2 °F 9.5 °F 21.2 °F 100% 29.64 in 10.0 mi South 11.5 mph - N/A   Clear
4:15 AM 21.2 °F 10.1 °F 21.2 °F 100% 29.64 in 10.0 mi South 10.4 mph - N/A   Clear
4:35 AM 21.2 °F 10.1 °F 21.2 °F 100% 29.64 in 10.0 mi South 10.4 mph - N/A   Clear
4:55 AM 21.2 °F 10.9 °F 19.4 °F 93% 29.63 in 10.0 mi South 9.2 mph - N/A   Clear
5:15 AM 21.2 °F 11.7 °F 19.4 °F 93% 29.64 in 10.0 mi South 8.1 mph - N/A   Clear
5:35 AM 21.2 °F 10.9 °F 19.4 °F 93% 29.63 in 10.0 mi South 9.2 mph - N/A   Clear
5:55 AM 21.2 °F 10.9 °F 19.4 °F 93% 29.63 in 10.0 mi South 9.2 mph - N/A   Clear
6:15 AM 21.2 °F 11.7 °F 21.2 °F 100% 29.63 in 10.0 mi South 8.1 mph - N/A   Clear
6:35 AM 24.8 °F 16.9 °F 21.2 °F 86% 29.63 in 10.0 mi South 6.9 mph - N/A   Clear
6:55 AM 24.8 °F 16.9 °F 21.2 °F 86% 29.64 in 10.0 mi South 6.9 mph - N/A   Clear
7:15 AM 23.0 °F 14.7 °F 21.2 °F 93% 29.63 in 10.0 mi South 6.9 mph - N/A   Clear
7:35 AM 21.2 °F 13.6 °F 19.4 °F 93% 29.63 in 10.0 mi South 5.8 mph - N/A   Clear
7:55 AM 21.2 °F 12.6 °F 19.4 °F 93% 29.62 in 10.0 mi South 6.9 mph - N/A   Clear
8:15 AM 19.4 °F 9.5 °F 17.6 °F 93% 29.63 in 10.0 mi South 8.1 mph - N/A   Clear
8:35 AM 21.2 °F 10.9 °F 19.4 °F 93% 29.62 in 10.0 mi SSE 9.2 mph - N/A   Clear
8:55 AM 26.6 °F 17.5 °F 21.2 °F 80% 29.61 in 10.0 mi SSE 9.2 mph - N/A   Clear
9:15 AM 26.6 °F 18.2 °F 23.0 °F 86% 29.60 in 10.0 mi South 8.1 mph - N/A   Clear
9:35 AM 28.4 °F 20.4 °F 24.8 °F 86% 29.60 in 10.0 mi South 8.1 mph - N/A   Clear
9:55 AM 30.2 °F 22.6 °F 24.8 °F 80% 29.59 in 10.0 mi South 8.1 mph - N/A   Clear
10:15 AM 32.0 °F 24.2 °F 24.8 °F 75% 29.59 in 10.0 mi South 9.2 mph - N/A   Clear
10:35 AM 33.8 °F 27.0 °F 26.6 °F 75% 29.59 in 10.0 mi South 8.1 mph - N/A   Clear
10:55 AM 35.6 °F 29.9 °F 26.6 °F 70% 29.58 in 10.0 mi South 6.9 mph - N/A   Clear
11:15 AM 37.4 °F 31.4 °F 26.6 °F 65% 29.58 in 10.0 mi South 8.1 mph - N/A   Clear
11:35 AM 37.4 °F 29.8 °F 26.6 °F 65% 29.58 in 10.0 mi South 11.5 mph - N/A   Clear
11:55 AM 37.4 °F 30.3 °F 28.4 °F 70% 29.57 in 10.0 mi South 10.4 mph - N/A   Clear
12:15 PM 37.4 °F 29.8 °F 28.4 °F 70% 29.56 in 10.0 mi South 11.5 mph - N/A   Clear
12:35 PM 39.2 °F 33.0 °F 28.4 °F 65% 29.56 in 10.0 mi South 9.2 mph - N/A   Clear
12:55 PM 39.2 °F 37.0 °F 28.4 °F 65% 29.54 in 10.0 mi South 3.5 mph - N/A   Clear
1:15 PM 39.2 °F 35.9 °F 30.2 °F 70% 29.54 in 10.0 mi South 4.6 mph - N/A   Clear
1:35 PM 37.4 °F 33.8 °F 30.2 °F 75% 29.53 in 10.0 mi South 4.6 mph - N/A   Clear
1:55 PM 37.4 °F 33.8 °F 30.2 °F 75% 29.52 in 10.0 mi South 4.6 mph - N/A   Clear
2:15 PM 37.4 °F 33.8 °F 30.2 °F 75% 29.52 in 10.0 mi SSE 4.6 mph - N/A   Clear
2:35 PM 37.4 °F 33.8 °F 28.4 °F 70% 29.51 in 10.0 mi SSE 4.6 mph - N/A   Clear
2:55 PM 37.4 °F 34.9 °F 33.8 °F 87% 29.50 in 10.0 mi SE 3.5 mph - N/A   Clear
3:15 PM 37.4 °F - 33.8 °F 87% 29.49 in 10.0 mi Calm Calm - N/A   Clear
3:55 PM 37.4 °F 34.9 °F 33.8 °F 87% 29.47 in 10.0 mi East 3.5 mph - N/A   Clear
4:15 PM 37.4 °F 34.9 °F 32.0 °F 81% 29.46 in 10.0 mi East 3.5 mph - N/A   Clear
4:36 PM 37.4 °F 33.8 °F 32.0 °F 81% 29.46 in 10.0 mi ESE 4.6 mph - N/A   Clear
4:55 PM 37.4 °F 32.8 °F 33.8 °F 87% 29.46 in 10.0 mi SE 5.8 mph - N/A   Clear
5:15 PM 39.2 °F 34.2 °F 30.2 °F 70% 29.46 in 10.0 mi SE 6.9 mph - N/A   Clear
5:34 PM 37.4 °F 32.1 °F 30.2 °F 75% 29.45 in 10.0 mi ESE 6.9 mph - N/A   Clear
5:55 PM 37.4 °F 30.8 °F 30.2 °F 75% 29.44 in 10.0 mi ESE 9.2 mph - N/A   Clear
6:15 PM 37.4 °F 32.1 °F 28.4 °F 70% 29.45 in 10.0 mi ESE 6.9 mph - N/A   Clear
6:35 PM 37.4 °F 32.1 °F 30.2 °F 75% 29.45 in 10.0 mi ESE 6.9 mph - N/A   Clear
6:55 PM 37.4 °F 32.1 °F 28.4 °F 70% 29.44 in 10.0 mi ESE 6.9 mph - N/A   Clear
7:15 PM 35.6 °F 29.2 °F 28.4 °F 75% 29.43 in 10.0 mi ESE 8.1 mph - N/A   Clear
7:35 PM 37.4 °F 30.8 °F 28.4 °F 70% 29.41 in 10.0 mi ESE 9.2 mph - N/A   Clear
7:55 PM 37.4 °F 29.8 °F 28.4 °F 70% 29.40 in 10.0 mi SE 11.5 mph 17.3 mph N/A   Clear
8:15 PM 37.4 °F 30.8 °F 28.4 °F 70% 29.41 in 10.0 mi SSE 9.2 mph - N/A   Clear
8:35 PM 35.6 °F 28.6 °F 28.4 °F 75% 29.41 in 10.0 mi South 9.2 mph - N/A   Clear
8:55 PM 33.8 °F 25.8 °F 28.4 °F 81% 29.40 in 10.0 mi SSE 10.4 mph - N/A   Clear
9:15 PM 33.8 °F 25.8 °F 28.4 °F 81% 29.39 in 10.0 mi SSE 10.4 mph - N/A   Clear
9:35 PM 33.8 °F 25.8 °F 28.4 °F 81% 29.39 in 10.0 mi SSE 10.4 mph - N/A   Clear
9:55 PM 32.0 °F 23.0 °F 28.4 °F 87% 29.38 in 7.0 mi SE 11.5 mph 18.4 mph N/A   Clear
10:15 PM 30.2 °F 21.3 °F 28.4 °F 93% 29.40 in 7.0 mi SSE 10.4 mph - N/A   Clear
10:35 PM 30.2 °F 21.9 °F 28.4 °F 93% 29.39 in 7.0 mi SSE 9.2 mph - N/A   Clear
10:55 PM 30.2 °F 22.6 °F 26.6 °F 86% 29.37 in 7.0 mi SE 8.1 mph - N/A   Scattered Clouds
11:15 PM 30.2 °F 21.9 °F 28.4 °F 93% 29.39 in 5.0 mi SSE 9.2 mph - N/A   Scattered Clouds
11:35 PM 30.2 °F 21.3 °F 28.4 °F 93% 29.38 in 7.0 mi SSE 10.4 mph - N/A   Overcast
11:55 PM 30.2 °F 21.9 °F 28.4 °F 93% 29.39 in 5.0 mi SSE 9.2 mph - N/A   Overcast